[[{"header":{"parameterUnit":"m.s-1","parameterCategory":1,"la1":30.2992,"la2":30.254,"lo1":-89.0895,"lo2":-89.0443,"dy":0.0025,"dx":0.0025,"nx":19,"ny":19,"refTime":"2026-04-28T09:00:00:Z","depth":0,"parameterNumber":2,"parameterNumberName":"U-component_of_WINDS"},"data":[0,0,0,-2.9952,-2.9954,-3.0054,-3.0054,-3.018,-3.0181,0,0,0,0,0,0,0,0,0,0,0,-2.9921,-2.9922,-2.9952,-2.9954,-3.0054,-3.0054,-3.0179,-3.0181,0,0,0,0,0,0,0,0,0,0,0,-2.9921,-2.9922,-2.9923,-2.9955,-3.0054,-3.0054,-3.0179,-3.0105,0,0,0,0,0,0,0,0,0,0,-3.0008,-2.9979,-2.9922,-2.9923,-2.9955,-3.0054,-3.0054,-3.0101,-3.0109,-3.0134,0,-3.0155,0,-3.017,-3.0189,-3.0189,0,0,0,-2.9955,-2.9972,-3.0,-2.9923,-2.9956,-3.0053,-3.0009,-3.0106,-3.0115,-3.0145,-3.0157,-3.0162,-3.0172,-3.019,-3.019,-3.0328,-3.0329,0,0,-2.995,-2.9939,-2.9994,-3.0006,-2.9991,-3.0006,-3.0012,-3.0111,-3.0124,-3.0157,-3.0165,-3.0174,-3.0191,-3.0192,-3.0328,-3.0328,0,0,0,-2.9933,-2.9935,-2.996,-3.0001,-3.0019,-3.0009,-3.0016,-3.012,-3.0129,-3.0166,-3.0176,-3.0191,-3.0193,-3.0327,-3.0328,-3.0346,0,0,0,-2.993,-2.9925,-2.9958,-2.9952,-3.0017,-3.0071,-3.0022,-3.0122,-3.0134,-3.0175,-3.0191,-3.0194,-3.0326,-3.0327,-3.0344,-3.0356,0,0,0,-2.9915,-2.9924,-2.9938,-2.9951,-2.9994,-3.0069,-3.0084,-3.0125,-3.014,-3.019,-3.0194,-3.0326,-3.0327,-3.0342,-3.0353,-3.0387,0,0,0,-2.9896,-2.9953,-2.9938,-3.0005,-2.9993,-3.008,-3.0084,-3.0149,-3.0195,-3.0192,-3.0326,-3.0328,-3.0342,-3.0351,-3.0385,-3.0413,-3.0424,0,0,-2.9962,-2.9961,-3.0001,-2.999,-3.0077,-3.0066,-3.0156,-3.0208,-3.0223,-3.0292,-3.0296,-3.0344,-3.0353,-3.0387,-3.0493,-3.0501,0,0,0,-3.0018,-3.0046,-3.0072,-3.0114,-3.0156,-3.0191,-3.0231,-3.025,-3.0309,-3.0256,-3.0368,-3.0373,-3.0393,-3.0407,-3.0414,-3.0432,-3.0334,-3.0334,-3.0334,-3.0094,-3.011,-3.0177,-3.0205,-3.0246,-3.0286,-3.0321,-3.0354,-3.0359,-3.0385,-3.0404,-3.0467,-3.0482,-3.0488,-3.0506,-3.0422,-3.0422,-3.0422,-3.0422,-3.0189,-3.0231,-3.0236,-3.0303,-3.032,-3.0376,-3.0417,-3.0419,-3.0473,-3.0453,-3.0472,-3.0446,-3.0497,-3.0513,-3.0424,-3.0424,-3.0423,-3.0423,-3.0423,-3.0239,-3.0262,-3.0285,-3.0347,-3.0394,-3.0421,-3.0473,-3.0487,-3.05,-3.0519,-3.0541,-3.054,-3.054,-3.0529,-3.0529,-3.0529,-3.0529,-3.053,-3.053,-3.0281,-3.0306,-3.0347,-3.0396,-3.0424,-3.0464,-3.0505,-3.0534,-3.0569,-3.0575,-3.0576,-3.0577,-3.0499,-3.0478,-3.0533,-3.0532,-3.0532,-3.0532,-3.0532,-3.0368,-3.0351,-3.0415,-3.0444,-3.0501,-3.0546,-3.0564,-3.0621,-3.0647,-3.0672,-3.067,-3.0611,-3.061,-3.0605,-3.0587,-3.0667,-3.0667,-3.0667,-3.0667,-3.0409,-3.041,-3.0479,-3.0523,-3.0569,-3.0592,-3.0663,-3.0696,-3.0727,-3.0744,-3.0735,-3.0714,-3.0708,-3.0711,-3.0703,-3.0687,-3.0791,-3.0791,-3.0791,-3.0463,-3.0469,-3.0527,-3.0557,-3.0603,-3.0642,-3.071,-3.0761,-3.0793,-3.0796,-3.0758,-3.0752,-3.0718,-3.0707,-3.0706,-3.0694,-3.0664,0,0]},{"header":{"parameterUnit":"m.s-1","parameterCategory":1,"la1":30.2992,"la2":30.254,"lo1":-89.0895,"lo2":-89.0443,"dy":0.0025,"dx":0.0025,"nx":19,"ny":19,"refTime":"2026-04-28T09:00:00:Z","depth":0,"parameterNumber":3,"parameterNumberName":"V-component_of_WINDS"},"data":[0,0,0,5.0104,5.0107,5.0234,5.0235,5.0396,5.0397,0,0,0,0,0,0,0,0,0,0,0,5.0067,5.0068,5.0104,5.0107,5.0234,5.0235,5.0395,5.0397,0,0,0,0,0,0,0,0,0,0,0,5.0066,5.0067,5.0069,5.0107,5.0234,5.0235,5.0395,5.0299,0,0,0,0,0,0,0,0,0,0,5.0175,5.0142,5.0067,5.0069,5.0108,5.0234,5.0235,5.0294,5.0305,5.0337,0,5.0368,0,5.0385,5.0408,5.0408,0,0,0,5.0106,5.0133,5.0167,5.0069,5.0109,5.0234,5.0176,5.03,5.0312,5.0351,5.0371,5.0377,5.0388,5.0409,5.041,5.0605,5.0606,0,0,5.0099,5.0089,5.0159,5.0175,5.0158,5.0172,5.018,5.0308,5.0327,5.0371,5.038,5.0391,5.041,5.0411,5.0605,5.0606,0,0,0,5.0079,5.0084,5.0116,5.0169,5.0192,5.0176,5.0185,5.0321,5.0332,5.0382,5.0393,5.0411,5.0413,5.0604,5.0605,5.0644,0,0,0,5.0075,5.0073,5.0112,5.0108,5.019,5.0259,5.0196,5.0324,5.0338,5.0392,5.0411,5.0414,5.0602,5.0604,5.0641,5.0663,0,0,0,5.0058,5.0071,5.009,5.0107,5.0162,5.0257,5.0275,5.0327,5.0345,5.0408,5.0415,5.0602,5.0604,5.0638,5.0659,5.0712,0,0,0,5.0037,5.0122,5.0091,5.019,5.0161,5.0281,5.0275,5.0364,5.0423,5.0412,5.0603,5.0605,5.0637,5.0656,5.0709,5.0754,5.0773,0,0,5.0139,5.0134,5.0194,5.0169,5.0293,5.0262,5.0391,5.0453,5.0467,5.0558,5.0563,5.0642,5.0658,5.0711,5.0883,5.0897,0,0,0,5.0223,5.0265,5.03,5.0358,5.0409,5.0453,5.0497,5.052,5.0599,5.0513,5.0677,5.0686,5.0718,5.074,5.0752,5.0779,5.0615,5.0615,5.0615,5.0353,5.0368,5.0467,5.0497,5.0552,5.0598,5.0643,5.0681,5.0678,5.0717,5.0743,5.0846,5.0872,5.0881,5.0909,5.077,5.077,5.077,5.077,5.0504,5.0566,5.0562,5.0656,5.067,5.0749,5.0795,5.0791,5.0864,5.0827,5.0855,5.0812,5.0897,5.0922,5.0773,5.0773,5.0773,5.0772,5.0772,5.059,5.0622,5.065,5.0735,5.0798,5.0825,5.0897,5.0907,5.0917,5.0945,5.0973,5.0973,5.0972,5.0958,5.0959,5.0959,5.0959,5.0959,5.096,5.0667,5.0698,5.0758,5.0821,5.0859,5.091,5.0957,5.0994,5.1037,5.1039,5.1039,5.1031,5.0904,5.087,5.0965,5.0964,5.0963,5.0963,5.0963,5.0812,5.0781,5.0874,5.0913,5.0986,5.1048,5.1061,5.1136,5.1168,5.1203,5.119,5.1094,5.1089,5.1079,5.1051,5.1188,5.1187,5.1188,5.1188,5.0883,5.0883,5.098,5.1041,5.1101,5.1123,5.1225,5.1262,5.1295,5.1316,5.1298,5.1263,5.1252,5.1253,5.1239,5.1214,5.1388,5.1388,5.1388,5.0972,5.0978,5.1064,5.1098,5.1157,5.1206,5.1303,5.1371,5.1402,5.1397,5.1332,5.1323,5.1267,5.1248,5.1239,5.1218,5.1171,0,0]}]]